This is the latest recevied weather packets stored in our database for station/object KB3KBR-WX. If no packets are shown the sender has not sent any weather packets the latest 10 day(s).
| Time | Temp. | Humidity | Pressure | Rain* | Wind** | Luminosity | Snow |
|---|---|---|---|---|---|---|---|
| 1777757426 | 5.56° C | 64% | 1011.9 hPa | 0 mm | - | - | - |
| 1777757126 | 5.56° C | 63% | 1011.8 hPa | 0 mm | - | - | - |
| 1777756796 | 5.56° C | 62% | 1011.8 hPa | 0 mm | - | - | - |
| 1777756496 | 5.56° C | 61% | 1011.7 hPa | 0 mm | - | - | - |
| 1777756196 | 5.56° C | 61% | 1011.7 hPa | 0 mm | - | - | - |
| 1777755866 | 5.56° C | 59% | 1011.7 hPa | 0 mm | - | - | - |
| 1777755536 | 5.56° C | 62% | 1011.6 hPa | 0 mm | - | - | - |
| 1777754906 | 5.56° C | 61% | 1011.5 hPa | 0 mm | - | - | - |
| 1777754606 | 6.11° C | 62% | 1011.5 hPa | 0 mm | - | - | - |
| 1777754276 | 6.11° C | 65% | 1011.6 hPa | 0 mm | - | - | - |
| 1777754063 | 6.11° C | 63% | 1011.4 hPa | 0 mm | - | - | - |
| 1777753946 | 6.11° C | 63% | 1011.4 hPa | 0 mm | - | - | - |
| 1777753646 | 6.11° C | 64% | 1011.5 hPa | 0 mm | - | - | - |
| 1777753316 | 6.11° C | 63% | 1011.6 hPa | 0 mm | - | - | - |
| 1777753016 | 6.11° C | 62% | 1011.7 hPa | 0 mm | - | - | - |
| 1777752716 | 6.67° C | 63% | 1011.7 hPa | 0 mm | - | - | - |
| 1777752086 | 6.11° C | 72% | 1011.8 hPa | 0 mm | - | - | - |
| 1777751787 | 6.11° C | 73% | 1011.8 hPa | 0 mm | - | - | - |
| 1777751456 | 5.56° C | 72% | 1012 hPa | 0 mm | - | - | - |
| 1777751129 | 5.56° C | 74% | 1012 hPa | 0 mm | - | - | - |
| 1777751126 | 5.56° C | 74% | 1012 hPa | 0 mm | - | - | - |
| 1777750826 | 5.56° C | 73% | 1012.2 hPa | 0 mm | - | - | - |
| 1777750496 | 5.56° C | 74% | 1012.2 hPa | 0 mm | - | - | - |
| 1777750196 | 5.56° C | 75% | 1012.4 hPa | 0 mm | - | - | - |
| 1777749866 | 5° C | 76% | 1012.3 hPa | 0 mm | - | - | - |
* Rain latest hour (hover to see other rain measurements)
** Current wind speed in m/s (hover to see current wind gust speed)